Location: Unspecified
(0.0000°N, 0.0000°E)
Time: 20:18:29
(UTC+00:00)

N. Korean satellite - Pass Details

Date: 02 June 2020
Orbit: 452 x 505 km, 97.2° (Epoch: 30 October)

Event Time Altitude Azimuth Distance (km) Brightness Sun altitude
Rises 05:03:46 0° 18° (NNE) 2,579 10.9 -12.5°
Reaches altitude 10° 05:05:53 10° 23° (NNE) 1,692 10.0 -12.1°
Maximum altitude 05:09:27 55° 101° (E) 598 7.3 -11.2°
Drops below altitude 10° 05:12:59 10° 179° (S) 1,671 9.1 -10.4°
Enters shadow 05:16:59 -7° 185° (S) 3,360 10.6 -9.5°
